Weather History for Monett, MO

Change the Weather History Date:

Friday, November 9, 2012

  Actual Average (KJLN) Record (KJLN)
Temperature  
Mean Temperature 61 °F 52 °F  
Max Temperature 71 °F 62 °F 87 °F (2006)
Min Temperature 51 °F 41 °F 21 °F (1991)
Degree Days  
Heating Degree Days 4 14  
Month to date heating degree days 111  
Since 1 July heating degree days 363  
Cooling Degree Days 0 0  
Month to date cooling degree days 5  
Year to date cooling degree days 1696  
Growing Degree Days 11 (Base 50)    
Moisture  
Dew Point 51 °F    
Average Humidity 68    
Maximum Humidity 82    
Minimum Humidity 57    
Precipitation  
Precipitation 0.00 in 0.13 in 0.87 in (1994)
Month to date precipitation 1.18  
Year to date precipitation 41.13  
Sea Level Pressure  
Sea Level Pressure 29.93 in    
Wind  
Wind Speed 14 mph (South)    
Max Wind Speed 23 mph    
Max Gust Speed 30 mph    
Visibility 10 miles    
Events      
T = Trace of Precipitation, MM = Missing Value Source: NWS Daily Summary

Daily Weather History Graph

Daily Weather History Graph

Search for Another Location

Airport:

Trip Planner

Search our weather history database for the weather conditions in past years. The results will help you decide how hot, cold, wet, or windy it might be!

Date:

Astronomy

Nov. 09, 2012 Rise Set
Actual Time 6:48 AM CST 5:10 PM CST
Civil Twilight 6:21 AM CST 5:38 PM CST
Nautical Twilight 5:50 AM CST 6:09 PM CST
Astronomical Twilight 5:19 AM CST 6:39 PM CST
Moon 1:55 AM CST (11/9) 2:18 PM CST (11/9)
Length of Visible Light 11h 16m
Length of Day
10h 21m
Waning Crescent, 23% of the Moon is Illuminated
Nov 9
Waning Crescent
Nov 13
New
Nov 20
First Quarter
Nov 28
Full
Dec 6
Last Quarter

Hourly Weather History & Observations

Time (CST) Temp. Dew Point Humidity Pressure Visibility Wind Dir Wind Speed Gust Speed Precip Events Conditions
12:15 AM 53.6 °F 41.0 °F 62% 29.96 in 10.0 mi SSE 13.8 mph 19.6 mph N/A   Clear
12:35 AM 53.6 °F 41.0 °F 62% 29.97 in 10.0 mi SSE 12.7 mph 18.4 mph N/A   Clear
12:55 AM 53.6 °F 41.0 °F 62% 29.96 in 10.0 mi SSE 12.7 mph - N/A   Clear
1:15 AM 53.6 °F 42.8 °F 67% 29.96 in 10.0 mi SSE 11.5 mph - N/A   Clear
1:35 AM 53.6 °F 42.8 °F 67% 29.96 in 10.0 mi SSE 11.5 mph - N/A   Clear
1:55 AM 53.6 °F 42.8 °F 67% 29.96 in 10.0 mi SSE 10.4 mph - N/A   Clear
2:15 AM 53.6 °F 42.8 °F 67% 29.96 in 10.0 mi SSE 9.2 mph - N/A   Clear
2:35 AM 51.8 °F 42.8 °F 71% 29.96 in 10.0 mi SSE 11.5 mph - N/A   Clear
2:55 AM 53.6 °F 42.8 °F 67% 29.96 in 10.0 mi SSE 10.4 mph - N/A   Clear
3:15 AM 51.8 °F 42.8 °F 71% 29.96 in 10.0 mi SSE 11.5 mph - N/A   Clear
3:35 AM 51.8 °F 42.8 °F 71% 29.96 in 10.0 mi SSE 11.5 mph - N/A   Clear
3:55 AM 51.8 °F 42.8 °F 71% 29.96 in 10.0 mi SSE 10.4 mph - N/A   Clear
4:15 AM 51.8 °F 42.8 °F 71% 29.96 in 10.0 mi SSE 9.2 mph - N/A   Clear
4:35 AM 51.8 °F 44.6 °F 76% 29.96 in 10.0 mi SSE 10.4 mph - N/A   Clear
4:55 AM 51.8 °F 44.6 °F 76% 29.96 in 10.0 mi SSE 10.4 mph - N/A   Clear
5:15 AM 51.8 °F 44.6 °F 76% 29.96 in 10.0 mi SSE 10.4 mph - N/A   Clear
5:35 AM 51.8 °F 44.6 °F 76% 29.96 in 10.0 mi SSE 9.2 mph - N/A   Clear
5:55 AM 51.8 °F 44.6 °F 76% 29.96 in 10.0 mi SSE 9.2 mph - N/A   Clear
6:15 AM 53.6 °F 46.4 °F 77% 29.96 in 10.0 mi South 12.7 mph 18.4 mph N/A   Clear
6:35 AM 55.4 °F 48.2 °F 77% 29.96 in 10.0 mi South 17.3 mph 20.7 mph N/A   Clear
6:55 AM 55.4 °F 50.0 °F 82% 29.96 in 10.0 mi South 18.4 mph 21.9 mph N/A   Clear
7:15 AM 57.2 °F 50.0 °F 77% 29.96 in 10.0 mi South 16.1 mph 25.3 mph N/A   Clear
7:35 AM 57.2 °F 50.0 °F 77% 29.97 in 10.0 mi South 19.6 mph 23.0 mph N/A   Clear
7:55 AM 59.0 °F 51.8 °F 77% 29.97 in 10.0 mi South 21.9 mph 26.5 mph N/A   Clear
8:15 AM 59.0 °F 51.8 °F 77% 29.97 in 10.0 mi South 23.0 mph 27.6 mph N/A   Clear
8:35 AM 60.8 °F 53.6 °F 77% 29.97 in 10.0 mi SSW 20.7 mph 27.6 mph N/A   Clear
8:55 AM 60.8 °F 53.6 °F 77% 29.97 in 10.0 mi South 21.9 mph 27.6 mph N/A   Clear
9:15 AM 62.6 °F 55.4 °F 77% 29.97 in 10.0 mi South 23.0 mph 29.9 mph N/A   Clear
9:35 AM 64.4 °F 55.4 °F 73% 29.97 in 10.0 mi South 21.9 mph 27.6 mph N/A   Clear
9:55 AM 64.4 °F 55.4 °F 73% 29.97 in 10.0 mi SSW 21.9 mph 29.9 mph N/A   Clear
10:15 AM 66.2 °F 55.4 °F 68% 29.97 in 10.0 mi SSW 18.4 mph 24.2 mph N/A   Clear
10:35 AM 68.0 °F 55.4 °F 64% 29.97 in 10.0 mi SSW 18.4 mph 27.6 mph N/A   Clear
10:55 AM 68.0 °F 55.4 °F 64% 29.97 in 10.0 mi SSW 16.1 mph - N/A   Clear
11:15 AM 69.8 °F 55.4 °F 60% 29.96 in 10.0 mi South 19.6 mph 28.8 mph N/A   Clear
11:35 AM 68.0 °F 55.4 °F 64% 29.95 in 10.0 mi SSW 19.6 mph 24.2 mph N/A   Clear
11:55 AM 69.8 °F 55.4 °F 60% 29.94 in 10.0 mi South 21.9 mph 25.3 mph N/A   Clear
12:15 PM 69.8 °F 55.4 °F 60% 29.93 in 10.0 mi SSW 13.8 mph 26.5 mph N/A   Clear
12:35 PM 71.6 °F 55.4 °F 57% 29.91 in 10.0 mi South 20.7 mph 27.6 mph N/A   Clear
12:55 PM 71.6 °F 55.4 °F 57% 29.91 in 10.0 mi South 17.3 mph 24.2 mph N/A   Clear
1:15 PM 71.6 °F 55.4 °F 57% 29.91 in 10.0 mi SSW 23.0 mph 27.6 mph N/A   Clear
1:35 PM 71.6 °F 55.4 °F 57% 29.90 in 10.0 mi South 13.8 mph 21.9 mph N/A   Clear
1:55 PM 71.6 °F 55.4 °F 57% 29.90 in 10.0 mi South 16.1 mph 24.2 mph N/A   Clear
2:15 PM 71.6 °F 55.4 °F 57% 29.89 in 10.0 mi South 19.6 mph 25.3 mph N/A   Clear
2:35 PM 71.6 °F 55.4 °F 57% 29.88 in 10.0 mi South 17.3 mph 23.0 mph N/A   Clear
2:55 PM 71.6 °F 55.4 °F 57% 29.88 in 10.0 mi South 18.4 mph 21.9 mph N/A   Clear
3:15 PM 71.6 °F 55.4 °F 57% 29.88 in 10.0 mi South 17.3 mph 23.0 mph N/A   Clear
3:35 PM 71.6 °F 55.4 °F 57% 29.88 in 10.0 mi South 17.3 mph 24.2 mph N/A   Clear
3:55 PM 71.6 °F 55.4 °F 57% 29.87 in 10.0 mi South 19.6 mph 23.0 mph N/A   Clear
4:15 PM 69.8 °F 55.4 °F 60% 29.87 in 10.0 mi South 12.7 mph - N/A   Clear
4:35 PM 69.8 °F 55.4 °F 60% 29.88 in 10.0 mi South 11.5 mph 16.1 mph N/A   Clear
4:55 PM 69.8 °F 55.4 °F 60% 29.88 in 10.0 mi South 15.0 mph - N/A   Clear
5:15 PM 68.0 °F 55.4 °F 64% 29.89 in 10.0 mi South 10.4 mph - N/A   Clear
5:35 PM 68.0 °F 55.4 °F 64% 29.89 in 10.0 mi South 12.7 mph - N/A   Clear
5:55 PM 64.4 °F 55.4 °F 73% 29.89 in 10.0 mi SSE 11.5 mph - N/A   Clear
6:15 PM 64.4 °F 55.4 °F 73% 29.90 in 10.0 mi SSE 12.7 mph 18.4 mph N/A   Clear
6:35 PM 64.4 °F 55.4 °F 73% 29.90 in 10.0 mi SSE 11.5 mph - N/A   Clear
6:55 PM 64.4 °F 55.4 °F 73% 29.90 in 10.0 mi SSE 11.5 mph 18.4 mph N/A   Clear
7:15 PM 64.4 °F 55.4 °F 73% 29.91 in 10.0 mi SSE 11.5 mph 20.7 mph N/A   Clear
7:55 PM 62.6 °F 53.6 °F 72% 29.91 in 10.0 mi SSE 13.8 mph - N/A   Clear
8:15 PM 62.6 °F 53.6 °F 72% 29.91 in 10.0 mi SSE 13.8 mph - N/A   Clear
8:35 PM 62.6 °F 53.6 °F 72% 29.91 in 10.0 mi South 12.7 mph - N/A   Clear
8:55 PM 62.6 °F 53.6 °F 72% 29.92 in 10.0 mi South 13.8 mph - N/A   Clear
9:15 PM 62.6 °F 53.6 °F 72% 29.92 in 10.0 mi South 13.8 mph 17.3 mph N/A   Clear
9:35 PM 62.6 °F 53.6 °F 72% 29.92 in 10.0 mi South 12.7 mph 18.4 mph N/A   Clear